Time,TemperatureF,DewpointF,PressureIn,WindDirection,WindDirectionDegrees,WindSpeedMPH,WindSpeedGustMPH,Humidity,HourlyPrecipIn,Conditions,Clouds,dailyrainin,SoftwareType,DateUTC
2013-02-28 00:00:00,37.7,32.7,0.00,ENE,68,0.0,0.0,82,0.00,,,0.00,WUHU216HW,2013-02-28 05:00:00,
2013-02-28 00:05:00,37.7,32.7,0.00,East,90,0.0,0.0,82,0.00,,,0.00,WUHU216HW,2013-02-28 05:05:00,
2013-02-28 00:10:00,37.7,32.7,0.00,WSW,248,0.0,0.0,82,0.00,,,0.00,WUHU216HW,2013-02-28 05:10:00,
2013-02-28 00:15:00,37.5,32.2,0.00,WSW,248,0.0,0.0,81,0.00,,,0.00,WUHU216HW,2013-02-28 05:15:00,
2013-02-28 00:20:00,37.5,32.2,0.00,WSW,248,0.0,0.0,81,0.00,,,0.00,WUHU216HW,2013-02-28 05:20:00,
2013-02-28 00:25:00,37.5,32.1,0.00,WSW,248,0.0,0.0,81,0.00,,,0.00,WUHU216HW,2013-02-28 05:25:00,
2013-02-28 00:30:00,37.4,32.1,0.00,WSW,248,0.0,0.0,81,0.00,,,0.00,WUHU216HW,2013-02-28 05:30:00,
2013-02-28 00:35:00,37.2,32.2,0.00,WSW,248,0.0,0.0,82,0.00,,,0.00,WUHU216HW,2013-02-28 05:35:00,
2013-02-28 00:40:00,37.2,32.2,0.00,WSW,248,0.0,0.0,82,0.00,,,0.00,WUHU216HW,2013-02-28 05:40:00,
2013-02-28 00:45:00,37.2,32.2,0.00,WSW,248,0.0,0.0,82,0.00,,,0.00,WUHU216HW,2013-02-28 05:45:00,
2013-02-28 00:50:00,37.2,32.2,0.00,South,180,0.0,0.0,82,0.00,,,0.00,WUHU216HW,2013-02-28 05:50:00,
2013-02-28 00:55:00,37.2,32.2,0.00,SE,135,0.0,0.0,82,0.00,,,0.00,WUHU216HW,2013-02-28 05:55:00,
2013-02-28 01:00:00,37.0,32.0,0.00,South,180,0.0,3.3,82,0.00,,,0.00,WUHU216HW,2013-02-28 06:00:00,
2013-02-28 01:05:00,37.0,32.0,0.00,SSE,158,0.0,3.5,82,0.00,,,0.00,WUHU216HW,2013-02-28 06:05:00,
2013-02-28 01:10:00,36.6,31.6,0.00,SE,135,0.0,3.5,82,0.00,,,0.00,WUHU216HW,2013-02-28 06:10:00,
2013-02-28 01:15:00,36.6,31.6,0.00,SE,135,0.0,2.9,82,0.00,,,0.00,WUHU216HW,2013-02-28 06:15:00,
2013-02-28 01:20:00,36.5,31.4,0.00,SE,135,0.0,1.1,82,0.00,,,0.00,WUHU216HW,2013-02-28 06:20:00,
2013-02-28 01:25:00,36.3,31.3,0.00,SE,135,0.0,1.1,82,0.00,,,0.00,WUHU216HW,2013-02-28 06:25:00,
2013-02-28 01:30:00,36.3,31.3,0.00,SE,135,0.0,0.0,82,0.00,,,0.00,WUHU216HW,2013-02-28 06:30:00,
2013-02-28 01:35:00,36.3,31.3,0.00,SE,135,0.0,0.0,82,0.00,,,0.00,WUHU216HW,2013-02-28 06:35:00,
2013-02-28 01:40:00,36.3,31.3,0.00,SE,135,0.0,0.0,82,0.00,,,0.00,WUHU216HW,2013-02-28 06:40:00,
2013-02-28 01:45:00,36.1,31.1,0.00,SE,135,0.0,0.0,82,0.00,,,0.00,WUHU216HW,2013-02-28 06:45:00,
2013-02-28 01:50:00,36.1,31.1,0.00,SE,135,0.0,0.0,82,0.00,,,0.00,WUHU216HW,2013-02-28 06:50:00,
2013-02-28 01:55:00,35.9,30.9,0.00,SE,135,0.0,0.0,82,0.00,,,0.00,WUHU216HW,2013-02-28 06:55:00,
2013-02-28 02:00:00,35.9,30.9,0.00,SE,135,0.0,0.0,82,0.00,,,0.00,WUHU216HW,2013-02-28 07:00:00,
2013-02-28 02:05:00,35.9,30.9,0.00,SE,135,0.0,0.0,82,0.00,,,0.00,WUHU216HW,2013-02-28 07:05:00,
2013-02-28 02:10:00,35.7,30.7,0.00,SE,135,0.0,0.0,82,0.00,,,0.00,WUHU216HW,2013-02-28 07:10:00,
2013-02-28 02:15:00,35.7,30.7,0.00,SE,135,0.0,0.0,82,0.00,,,0.00,WUHU216HW,2013-02-28 07:15:00,
2013-02-28 02:20:00,35.7,30.7,0.00,SE,135,0.0,0.0,82,0.00,,,0.00,WUHU216HW,2013-02-28 07:20:00,
2013-02-28 02:25:00,35.7,30.7,0.00,SE,135,0.0,0.0,82,0.00,,,0.00,WUHU216HW,2013-02-28 07:25:00,
2013-02-28 02:30:00,35.7,30.7,0.00,SE,135,0.0,0.0,82,0.00,,,0.00,WUHU216HW,2013-02-28 07:30:00,
2013-02-28 02:35:00,35.7,30.7,0.00,SE,135,0.0,0.0,82,0.00,,,0.00,WUHU216HW,2013-02-28 07:35:00,
2013-02-28 02:40:00,35.7,30.7,0.00,SE,135,0.0,0.0,82,0.00,,,0.00,WUHU216HW,2013-02-28 07:40:00,
2013-02-28 02:45:00,35.7,30.4,0.00,ESE,113,0.0,0.0,81,0.00,,,0.00,WUHU216HW,2013-02-28 07:45:00,
2013-02-28 02:50:00,35.7,30.4,0.00,North,0,0.0,0.0,81,0.00,,,0.00,WUHU216HW,2013-02-28 07:50:00,
2013-02-28 02:55:00,35.7,30.4,0.00,NE,45,0.0,0.0,81,0.00,,,0.00,WUHU216HW,2013-02-28 07:55:00,
2013-02-28 03:00:00,35.7,30.4,0.00,ENE,68,0.0,0.0,81,0.00,,,0.00,WUHU216HW,2013-02-28 08:00:00,
2013-02-28 03:05:00,35.7,30.4,0.00,ENE,68,0.0,0.0,81,0.00,,,0.00,WUHU216HW,2013-02-28 08:05:00,
2013-02-28 03:10:00,35.7,30.4,0.00,ESE,113,0.0,0.0,81,0.00,,,0.00,WUHU216HW,2013-02-28 08:10:00,
2013-02-28 03:15:00,35.7,30.2,0.00,ESE,113,0.0,0.0,80,0.00,,,0.00,WUHU216HW,2013-02-28 08:15:00,
2013-02-28 03:20:00,35.7,30.2,0.00,ESE,113,0.0,0.0,80,0.00,,,0.00,WUHU216HW,2013-02-28 08:20:00,
2013-02-28 03:25:00,35.7,30.2,0.00,ESE,113,0.0,0.0,80,0.00,,,0.00,WUHU216HW,2013-02-28 08:25:00,
2013-02-28 03:30:00,35.7,30.2,0.00,ESE,113,0.0,2.0,80,0.00,,,0.00,WUHU216HW,2013-02-28 08:30:00,
2013-02-28 03:35:00,35.7,30.2,0.00,SE,135,0.0,2.0,80,0.00,,,0.00,WUHU216HW,2013-02-28 08:35:00,
2013-02-28 03:40:00,35.7,30.2,0.00,SE,135,0.0,0.0,80,0.00,,,0.00,WUHU216HW,2013-02-28 08:40:00,
2013-02-28 03:45:00,35.7,30.0,0.00,SE,135,0.0,0.0,80,0.00,,,0.00,WUHU216HW,2013-02-28 08:45:00,
2013-02-28 03:50:00,35.6,30.0,0.00,SSE,158,0.0,0.0,79,0.00,,,0.00,WUHU216HW,2013-02-28 08:50:00,
2013-02-28 03:55:00,35.6,29.6,0.00,SSE,158,0.0,0.0,79,0.00,,,0.00,WUHU216HW,2013-02-28 08:55:00,
2013-02-28 04:00:00,35.6,29.6,0.00,SSE,158,0.0,0.0,79,0.00,,,0.00,WUHU216HW,2013-02-28 09:00:00,
2013-02-28 04:05:00,35.6,29.6,0.00,SSE,158,0.0,0.0,79,0.00,,,0.00,WUHU216HW,2013-02-28 09:05:00,
2013-02-28 04:10:00,35.7,29.8,0.00,SSW,203,0.0,0.0,79,0.00,,,0.00,WUHU216HW,2013-02-28 09:10:00,
2013-02-28 04:15:00,35.7,29.8,0.00,SSE,158,0.0,1.3,79,0.00,,,0.00,WUHU216HW,2013-02-28 09:15:00,
2013-02-28 04:20:00,35.7,29.8,0.00,SE,135,0.0,1.3,79,0.00,,,0.00,WUHU216HW,2013-02-28 09:20:00,
2013-02-28 04:25:00,35.6,29.6,0.00,SE,135,0.0,0.0,79,0.00,,,0.00,WUHU216HW,2013-02-28 09:25:00,
2013-02-28 04:30:00,35.4,29.5,0.00,SE,135,0.0,0.0,79,0.00,,,0.00,WUHU216HW,2013-02-28 09:30:00,
2013-02-28 04:35:00,35.2,29.3,0.00,ESE,113,0.0,2.9,79,0.00,,,0.00,WUHU216HW,2013-02-28 09:35:00,
2013-02-28 04:40:00,34.8,28.9,0.00,SW,225,0.0,2.9,79,0.00,,,0.00,WUHU216HW,2013-02-28 09:40:00,
2013-02-28 04:45:00,34.7,28.7,0.00,SW,225,0.0,0.0,79,0.00,,,0.00,WUHU216HW,2013-02-28 09:45:00,
2013-02-28 04:50:00,34.5,28.6,0.00,ESE,113,0.0,0.0,79,0.00,,,0.00,WUHU216HW,2013-02-28 09:50:00,
2013-02-28 04:55:00,34.3,28.4,0.00,ESE,113,0.0,0.0,79,0.00,,,0.00,WUHU216HW,2013-02-28 09:55:00,
2013-02-28 05:00:00,34.3,28.4,0.00,SE,135,0.0,0.0,79,0.00,,,0.00,WUHU216HW,2013-02-28 10:00:00,
2013-02-28 05:05:00,34.3,28.4,0.00,SE,135,0.0,0.0,79,0.00,,,0.00,WUHU216HW,2013-02-28 10:05:00,
2013-02-28 05:10:00,34.3,28.4,0.00,NW,315,0.0,0.4,79,0.00,,,0.00,WUHU216HW,2013-02-28 10:10:00,
2013-02-28 05:15:00,34.3,28.4,0.00,SE,135,0.0,0.4,79,0.00,,,0.00,WUHU216HW,2013-02-28 10:15:00,
2013-02-28 05:20:00,34.3,28.4,0.00,SE,135,0.0,1.1,79,0.00,,,0.00,WUHU216HW,2013-02-28 10:20:00,
2013-02-28 05:25:00,34.1,28.2,0.00,SE,135,0.0,1.1,79,0.00,,,0.00,WUHU216HW,2013-02-28 10:25:00,
2013-02-28 05:30:00,34.1,27.9,0.00,NW,315,0.0,0.0,78,0.00,,,0.00,WUHU216HW,2013-02-28 10:30:00,
2013-02-28 05:35:00,34.1,27.9,0.00,East,90,0.0,2.0,78,0.00,,,0.00,WUHU216HW,2013-02-28 10:35:00,
2013-02-28 05:40:00,34.1,27.6,0.00,SW,225,0.0,2.0,77,0.00,,,0.00,WUHU216HW,2013-02-28 10:40:00,
2013-02-28 05:45:00,34.1,27.6,0.00,SE,135,2.2,2.2,77,0.00,,,0.00,WUHU216HW,2013-02-28 10:45:00,
2013-02-28 05:50:00,34.1,27.6,0.00,SE,135,0.0,2.2,77,0.00,,,0.00,WUHU216HW,2013-02-28 10:50:00,
2013-02-28 05:55:00,33.9,27.4,0.00,SE,135,0.0,0.4,77,0.00,,,0.00,WUHU216HW,2013-02-28 10:55:00,
2013-02-28 06:00:00,33.9,27.4,0.00,ESE,113,0.0,1.7,77,0.00,,,0.00,WUHU216HW,2013-02-28 11:00:00,
2013-02-28 06:05:00,33.9,27.4,0.00,ESE,113,0.0,1.7,77,0.00,,,0.00,WUHU216HW,2013-02-28 11:05:00,
2013-02-28 06:10:00,33.9,27.4,0.00,SE,135,0.0,0.0,77,0.00,,,0.00,WUHU216HW,2013-02-28 11:10:00,
2013-02-28 06:15:00,33.9,27.4,0.00,SE,135,0.0,0.0,77,0.00,,,0.00,WUHU216HW,2013-02-28 11:15:00,
2013-02-28 06:20:00,33.9,27.4,0.00,SE,135,0.0,2.6,77,0.00,,,0.00,WUHU216HW,2013-02-28 11:20:00,
2013-02-28 06:25:00,33.9,27.1,0.00,SE,135,0.0,2.6,76,0.00,,,0.00,WUHU216HW,2013-02-28 11:25:00,
2013-02-28 06:30:00,33.8,26.9,0.00,SW,225,0.0,3.5,76,0.00,,,0.00,WUHU216HW,2013-02-28 11:30:00,
2013-02-28 06:35:00,33.6,26.7,0.00,SSE,158,0.0,3.5,76,0.00,,,0.00,WUHU216HW,2013-02-28 11:35:00,
2013-02-28 06:40:00,33.6,26.7,0.00,West,270,5.3,5.3,76,0.00,,,0.00,WUHU216HW,2013-02-28 11:40:00,
2013-02-28 06:45:00,33.6,26.7,0.00,ESE,113,0.0,5.3,76,0.00,,,0.00,WUHU216HW,2013-02-28 11:45:00,
2013-02-28 06:50:00,33.6,26.7,0.00,SW,225,0.0,1.1,76,0.00,,,0.00,WUHU216HW,2013-02-28 11:50:00,
2013-02-28 06:55:00,33.6,26.4,0.00,SE,135,0.0,2.0,75,0.00,,,0.00,WUHU216HW,2013-02-28 11:55:00,
2013-02-28 07:00:00,33.6,26.4,0.00,NNE,23,0.0,2.0,75,0.00,,,0.00,WUHU216HW,2013-02-28 12:00:00,
2013-02-28 07:05:00,33.6,26.4,0.00,SSE,158,0.0,3.3,75,0.00,,,0.00,WUHU216HW,2013-02-28 12:05:00,
2013-02-28 07:10:00,33.6,26.4,0.00,WSW,248,0.0,3.3,75,0.00,,,0.00,WUHU216HW,2013-02-28 12:10:00,
2013-02-28 07:15:00,33.6,26.4,0.00,SSW,203,0.0,0.0,75,0.00,,,0.00,WUHU216HW,2013-02-28 12:15:00,
2013-02-28 07:20:00,33.6,26.4,0.00,SSW,203,0.0,0.0,75,0.00,,,0.00,WUHU216HW,2013-02-28 12:20:00,
2013-02-28 07:25:00,33.6,26.7,0.00,SSW,203,0.0,0.0,76,0.00,,,0.00,WUHU216HW,2013-02-28 12:25:00,
2013-02-28 07:30:00,33.4,26.6,0.00,WSW,248,0.0,0.0,76,0.00,,,0.00,WUHU216HW,2013-02-28 12:30:00,
2013-02-28 07:35:00,33.4,26.7,0.00,WSW,248,0.0,0.0,76,0.00,,,0.00,WUHU216HW,2013-02-28 12:35:00,
2013-02-28 07:40:00,33.4,26.6,0.00,ESE,113,2.9,2.9,76,0.00,,,0.00,WUHU216HW,2013-02-28 12:40:00,
2013-02-28 07:45:00,33.6,26.7,0.00,SE,135,0.0,2.9,76,0.00,,,0.00,WUHU216HW,2013-02-28 12:45:00,
2013-02-28 07:50:00,33.6,26.7,0.00,ESE,113,0.0,2.0,76,0.00,,,0.00,WUHU216HW,2013-02-28 12:50:00,
2013-02-28 07:55:00,33.6,26.7,0.00,SE,135,2.9,4.9,76,0.00,,,0.00,WUHU216HW,2013-02-28 12:55:00,
2013-02-28 08:00:00,33.6,26.7,0.00,SE,135,1.1,4.9,76,0.00,,,0.00,WUHU216HW,2013-02-28 13:00:00,
2013-02-28 08:05:00,33.6,26.7,0.00,SE,135,4.0,4.0,76,0.00,,,0.00,WUHU216HW,2013-02-28 13:05:00,
2013-02-28 08:10:00,33.6,26.7,0.00,SE,135,3.5,4.0,76,0.00,,,0.00,WUHU216HW,2013-02-28 13:10:00,
2013-02-28 08:15:00,33.6,26.7,0.00,SE,135,0.4,3.5,76,0.00,,,0.00,WUHU216HW,2013-02-28 13:15:00,
2013-02-28 08:20:00,33.6,27.0,0.00,SE,135,0.0,3.3,77,0.00,,,0.00,WUHU216HW,2013-02-28 13:20:00,
2013-02-28 08:25:00,33.6,27.0,0.00,SE,135,2.2,4.0,77,0.00,,,0.00,WUHU216HW,2013-02-28 13:25:00,
2013-02-28 08:30:00,33.6,27.0,0.00,SE,135,1.1,4.0,77,0.00,,,0.00,WUHU216HW,2013-02-28 13:30:00,
2013-02-28 08:35:00,33.8,27.2,0.00,SE,135,0.0,2.2,77,0.00,,,0.00,WUHU216HW,2013-02-28 13:35:00,
2013-02-28 08:40:00,33.9,27.7,0.00,SE,135,0.0,2.0,78,0.00,,,0.00,WUHU216HW,2013-02-28 13:40:00,
2013-02-28 08:45:00,34.3,28.1,0.00,SE,135,1.7,3.3,78,0.00,,,0.00,WUHU216HW,2013-02-28 13:45:00,
2013-02-28 08:50:00,34.3,28.1,0.00,ESE,113,3.5,3.5,78,0.00,,,0.00,WUHU216HW,2013-02-28 13:50:00,
2013-02-28 08:55:00,34.3,27.7,0.00,SE,135,1.5,4.4,77,0.00,,,0.00,WUHU216HW,2013-02-28 13:55:00,
2013-02-28 09:00:00,34.3,27.7,0.00,SE,135,0.4,4.4,77,0.00,,,0.00,WUHU216HW,2013-02-28 14:00:00,
2013-02-28 09:05:00,34.3,27.7,0.00,SE,135,0.0,1.7,77,0.00,,,0.00,WUHU216HW,2013-02-28 14:05:00,
2013-02-28 09:10:00,34.3,27.7,0.00,SE,135,0.0,2.2,77,0.00,,,0.00,WUHU216HW,2013-02-28 14:10:00,
2013-02-28 09:15:00,34.3,27.7,0.00,SE,135,0.0,2.2,77,0.00,,,0.00,WUHU216HW,2013-02-28 14:15:00,
2013-02-28 09:20:00,34.3,27.7,0.00,SE,135,2.0,4.9,77,0.00,,,0.00,WUHU216HW,2013-02-28 14:20:00,
2013-02-28 09:25:00,34.3,27.7,0.00,SE,135,0.0,4.9,77,0.00,,,0.00,WUHU216HW,2013-02-28 14:25:00,
2013-02-28 09:30:00,34.3,27.7,0.00,SE,135,0.0,4.0,77,0.00,,,0.00,WUHU216HW,2013-02-28 14:30:00,
2013-02-28 09:35:00,34.3,27.7,0.00,SE,135,2.0,4.0,77,0.00,,,0.00,WUHU216HW,2013-02-28 14:35:00,
2013-02-28 09:40:00,34.5,27.9,0.00,SE,135,0.0,2.0,77,0.00,,,0.00,WUHU216HW,2013-02-28 14:40:00,
2013-02-28 09:45:00,34.7,28.1,0.00,ESE,113,0.0,0.0,77,0.00,,,0.00,WUHU216HW,2013-02-28 14:45:00,
2013-02-28 09:50:00,34.8,28.3,0.00,SE,135,0.0,1.7,77,0.00,,,0.00,WUHU216HW,2013-02-28 14:50:00,
2013-02-28 09:55:00,35.2,28.6,0.00,ESE,113,0.0,1.7,77,0.00,,,0.00,WUHU216HW,2013-02-28 14:55:00,
2013-02-28 10:00:00,35.4,28.5,0.00,WNW,293,7.1,7.1,76,0.00,,,0.00,WUHU216HW,2013-02-28 15:00:00,
2013-02-28 10:05:00,35.4,28.5,0.00,WNW,293,0.0,7.1,76,0.00,,,0.00,WUHU216HW,2013-02-28 15:05:00,
2013-02-28 10:10:00,35.7,28.9,0.00,SE,135,0.0,2.0,76,0.00,,,0.00,WUHU216HW,2013-02-28 15:10:00,
2013-02-28 10:15:00,35.9,29.0,0.00,SE,135,0.0,0.6,76,0.00,,,0.00,WUHU216HW,2013-02-28 15:15:00,
2013-02-28 10:20:00,36.3,29.4,0.00,SE,135,0.0,3.1,76,0.00,,,0.00,WUHU216HW,2013-02-28 15:20:00,
2013-02-28 10:25:00,36.6,29.8,0.00,SE,135,0.0,3.1,76,0.00,,,0.00,WUHU216HW,2013-02-28 15:25:00,
2013-02-28 10:30:00,37.0,29.8,0.00,WNW,293,0.0,4.6,75,0.00,,,0.00,WUHU216HW,2013-02-28 15:30:00,
2013-02-28 10:35:00,37.2,30.0,0.00,SSE,158,1.7,4.6,75,0.00,,,0.00,WUHU216HW,2013-02-28 15:35:00,
2013-02-28 10:40:00,37.2,30.0,0.00,SSE,158,0.0,3.3,75,0.00,,,0.00,WUHU216HW,2013-02-28 15:40:00,
2013-02-28 10:45:00,37.2,30.0,0.00,SE,135,0.0,3.3,75,0.00,,,0.00,WUHU216HW,2013-02-28 15:45:00,
2013-02-28 10:50:00,37.2,30.0,0.00,SE,135,0.0,1.1,75,0.00,,,0.00,WUHU216HW,2013-02-28 15:50:00,
2013-02-28 10:55:00,37.0,29.5,0.00,SE,135,0.0,2.6,74,0.00,,,0.00,WUHU216HW,2013-02-28 15:55:00,
2013-02-28 11:00:00,37.0,29.5,0.00,East,90,1.7,2.6,74,0.00,,,0.00,WUHU216HW,2013-02-28 16:00:00,
2013-02-28 11:05:00,36.6,29.1,0.00,East,90,0.0,1.7,74,0.00,,,0.00,WUHU216HW,2013-02-28 16:05:00,
2013-02-28 11:10:00,36.6,29.1,0.00,SE,135,2.6,2.6,74,0.00,,,0.00,WUHU216HW,2013-02-28 16:10:00,
2013-02-28 11:15:00,36.5,28.9,0.00,SSE,158,0.0,2.6,74,0.00,,,0.00,WUHU216HW,2013-02-28 16:15:00,
2013-02-28 11:20:00,36.1,28.6,0.00,SE,135,0.0,3.1,74,0.00,,,0.00,WUHU216HW,2013-02-28 16:20:00,
2013-02-28 11:25:00,35.7,28.5,0.00,SE,135,1.5,3.1,75,0.00,,,0.00,WUHU216HW,2013-02-28 16:25:00,
2013-02-28 11:30:00,35.4,28.2,0.00,SE,135,0.0,1.5,75,0.00,,,0.00,WUHU216HW,2013-02-28 16:30:00,
2013-02-28 11:35:00,35.2,28.0,0.00,SE,135,0.0,2.0,75,0.00,,,0.00,WUHU216HW,2013-02-28 16:35:00,
2013-02-28 11:40:00,34.8,28.0,0.00,SE,135,0.0,2.0,76,0.00,,,0.00,WUHU216HW,2013-02-28 16:40:00,
2013-02-28 11:45:00,34.8,28.0,0.00,SE,135,0.0,0.8,76,0.00,,,0.00,WUHU216HW,2013-02-28 16:45:00,
2013-02-28 11:50:00,34.7,27.8,0.00,SE,135,0.0,1.3,76,0.00,,,0.00,WUHU216HW,2013-02-28 16:50:00,
2013-02-28 11:55:00,34.3,27.4,0.00,SSE,158,0.0,1.3,76,0.00,,,0.00,WUHU216HW,2013-02-28 16:55:00,
2013-02-28 12:00:00,34.3,27.4,0.00,SE,135,0.0,1.3,76,0.00,,,0.00,WUHU216HW,2013-02-28 17:00:00,
2013-02-28 12:05:00,34.5,27.9,0.00,SE,135,0.0,0.0,77,0.00,,,0.00,WUHU216HW,2013-02-28 17:05:00,
2013-02-28 12:10:00,34.8,28.3,0.00,ESE,113,0.0,3.5,77,0.00,,,0.00,WUHU216HW,2013-02-28 17:10:00,
2013-02-28 12:15:00,34.8,28.3,0.00,SE,135,1.7,3.5,77,0.00,,,0.00,WUHU216HW,2013-02-28 17:15:00,
2013-02-28 12:20:00,34.8,28.3,0.00,WNW,293,1.7,1.7,77,0.00,,,0.00,WUHU216HW,2013-02-28 17:20:00,
2013-02-28 12:25:00,34.8,28.0,0.00,West,270,0.0,6.0,76,0.00,,,0.00,WUHU216HW,2013-02-28 17:25:00,
2013-02-28 12:30:00,34.5,27.6,0.00,SSE,158,0.0,6.0,76,0.00,,,0.00,WUHU216HW,2013-02-28 17:30:00,
2013-02-28 12:35:00,34.3,27.4,0.00,SSE,158,0.0,2.2,76,0.00,,,0.00,WUHU216HW,2013-02-28 17:35:00,
2013-02-28 12:40:00,34.3,27.4,0.00,WSW,248,0.0,0.0,76,0.00,,,0.00,WUHU216HW,2013-02-28 17:40:00,
2013-02-28 12:45:00,34.3,27.4,0.00,SE,135,0.0,0.0,76,0.00,,,0.00,WUHU216HW,2013-02-28 17:45:00,
2013-02-28 12:50:00,34.1,27.6,0.00,SE,135,0.0,0.0,77,0.00,,,0.00,WUHU216HW,2013-02-28 17:50:00,
2013-02-28 12:55:00,33.9,27.4,0.00,WSW,248,0.0,0.0,77,0.00,,,0.00,WUHU216HW,2013-02-28 17:55:00,
2013-02-28 13:00:00,33.8,27.1,0.00,SW,225,0.0,0.0,76,0.00,,,0.00,WUHU216HW,2013-02-28 18:00:00,
2013-02-28 13:05:00,33.9,26.9,0.00,SSW,203,0.0,0.0,76,0.00,,,0.00,WUHU216HW,2013-02-28 18:05:00,
2013-02-28 13:10:00,33.9,27.4,0.00,SSW,203,0.0,0.0,77,0.00,,,0.00,WUHU216HW,2013-02-28 18:10:00,
2013-02-28 13:15:00,33.9,27.4,0.00,SSW,203,0.0,0.0,77,0.00,,,0.00,WUHU216HW,2013-02-28 18:15:00,
2013-02-28 13:20:00,33.9,27.4,0.00,SSE,158,0.0,0.0,77,0.00,,,0.00,WUHU216HW,2013-02-28 18:20:00,
2013-02-28 13:25:00,34.1,27.6,0.00,SSE,158,0.0,0.0,77,0.00,,,0.00,WUHU216HW,2013-02-28 18:25:00,
2013-02-28 13:30:00,34.3,27.7,0.00,SSE,158,0.0,0.0,77,0.00,,,0.00,WUHU216HW,2013-02-28 18:30:00,
2013-02-28 13:35:00,34.5,28.2,0.00,SSE,158,0.0,0.0,78,0.00,,,0.00,WUHU216HW,2013-02-28 18:35:00,
2013-02-28 13:40:00,35.0,28.6,0.00,SSE,158,0.0,0.0,78,0.00,,,0.00,WUHU216HW,2013-02-28 18:40:00,
2013-02-28 13:45:00,35.2,29.0,0.00,SSE,158,0.0,0.4,78,0.00,,,0.00,WUHU216HW,2013-02-28 18:45:00,
2013-02-28 13:50:00,35.7,29.5,0.00,SE,135,1.7,3.3,78,0.00,,,0.00,WUHU216HW,2013-02-28 18:50:00,
2013-02-28 13:55:00,35.9,29.7,0.00,SE,135,0.8,3.8,78,0.00,,,0.00,WUHU216HW,2013-02-28 18:55:00,
2013-02-28 14:00:00,36.3,30.0,0.00,SE,135,2.2,3.8,78,0.00,,,0.00,WUHU216HW,2013-02-28 19:00:00,
2013-02-28 14:05:00,36.8,30.4,0.00,SE,135,0.0,2.9,78,0.00,,,0.00,WUHU216HW,2013-02-28 19:05:00,
2013-02-28 14:10:00,37.4,30.9,0.00,SE,135,3.1,3.1,78,0.00,,,0.00,WUHU216HW,2013-02-28 19:10:00,
2013-02-28 14:15:00,37.5,31.0,0.00,SE,135,0.0,3.1,77,0.00,,,0.00,WUHU216HW,2013-02-28 19:15:00,
2013-02-28 14:20:00,37.5,30.6,0.00,SE,135,0.0,1.5,76,0.00,,,0.00,WUHU216HW,2013-02-28 19:20:00,
2013-02-28 14:25:00,37.5,30.6,0.00,SE,135,0.0,1.7,76,0.00,,,0.00,WUHU216HW,2013-02-28 19:25:00,
2013-02-28 14:30:00,37.4,30.5,0.00,SE,135,0.0,1.7,76,0.00,,,0.00,WUHU216HW,2013-02-28 19:30:00,
2013-02-28 14:35:00,37.2,30.0,0.00,SE,135,0.0,0.0,75,0.00,,,0.00,WUHU216HW,2013-02-28 19:35:00,
2013-02-28 14:40:00,37.2,30.0,0.00,SE,135,0.0,0.0,75,0.00,,,0.00,WUHU216HW,2013-02-28 19:40:00,
2013-02-28 14:45:00,37.2,30.0,0.00,SE,135,2.0,2.0,75,0.00,,,0.00,WUHU216HW,2013-02-28 19:45:00,
2013-02-28 14:50:00,37.0,29.8,0.00,SE,135,0.0,2.0,75,0.00,,,0.00,WUHU216HW,2013-02-28 19:50:00,
2013-02-28 14:55:00,37.2,30.0,0.00,West,270,0.0,0.0,75,0.00,,,0.00,WUHU216HW,2013-02-28 19:55:00,
2013-02-28 15:00:00,37.2,29.6,0.00,SE,135,0.0,2.4,74,0.00,,,0.00,WUHU216HW,2013-02-28 20:00:00,
2013-02-28 15:05:00,37.0,29.5,0.00,SE,135,0.0,2.4,74,0.00,,,0.00,WUHU216HW,2013-02-28 20:05:00,
2013-02-28 15:10:00,37.0,29.5,0.00,SE,135,0.0,0.8,74,0.00,,,0.00,WUHU216HW,2013-02-28 20:10:00,
2013-02-28 15:15:00,36.8,29.3,0.00,South,180,0.0,0.8,74,0.00,,,0.00,WUHU216HW,2013-02-28 20:15:00,
2013-02-28 15:20:00,36.6,29.1,0.00,South,180,0.0,0.8,74,0.00,,,0.00,WUHU216HW,2013-02-28 20:20:00,
2013-02-28 15:25:00,36.6,29.1,0.00,South,180,0.0,0.0,74,0.00,,,0.00,WUHU216HW,2013-02-28 20:25:00,
2013-02-28 15:30:00,36.6,29.1,0.00,SSE,158,3.1,3.1,74,0.00,,,0.00,WUHU216HW,2013-02-28 20:30:00,
2013-02-28 15:35:00,36.5,29.1,0.00,SSE,158,0.4,3.1,74,0.00,,,0.00,WUHU216HW,2013-02-28 20:35:00,
2013-02-28 15:40:00,36.5,28.9,0.00,North,0,0.0,2.9,74,0.00,,,0.00,WUHU216HW,2013-02-28 20:40:00,
2013-02-28 15:45:00,36.5,28.9,0.00,SE,135,0.0,3.3,74,0.00,,,0.00,WUHU216HW,2013-02-28 20:45:00,
2013-02-28 15:50:00,36.3,28.7,0.00,SE,135,0.0,3.3,74,0.00,,,0.00,WUHU216HW,2013-02-28 20:50:00,
2013-02-28 15:55:00,36.3,28.4,0.00,ESE,113,0.0,3.5,73,0.00,,,0.00,WUHU216HW,2013-02-28 20:55:00,
2013-02-28 16:00:00,36.3,28.1,0.00,ESE,113,0.0,3.5,72,0.00,,,0.00,WUHU216HW,2013-02-28 21:00:00,
2013-02-28 16:05:00,36.3,28.1,0.00,WSW,248,0.0,0.0,72,0.00,,,0.00,WUHU216HW,2013-02-28 21:05:00,
2013-02-28 16:10:00,36.3,28.1,0.00,SSW,203,0.0,0.0,72,0.00,,,0.00,WUHU216HW,2013-02-28 21:10:00,
2013-02-28 16:15:00,36.1,27.9,0.00,South,180,0.0,1.1,72,0.00,,,0.00,WUHU216HW,2013-02-28 21:15:00,
2013-02-28 16:20:00,36.1,27.6,0.00,South,180,0.0,1.1,71,0.00,,,0.00,WUHU216HW,2013-02-28 21:20:00,
2013-02-28 16:25:00,36.1,27.6,0.00,SE,135,2.9,2.9,71,0.00,,,0.00,WUHU216HW,2013-02-28 21:25:00,
2013-02-28 16:30:00,35.9,27.4,0.00,South,180,0.0,2.9,71,0.00,,,0.00,WUHU216HW,2013-02-28 21:30:00,
2013-02-28 16:35:00,35.7,26.9,0.00,WSW,248,0.0,1.3,70,0.00,,,0.00,WUHU216HW,2013-02-28 21:35:00,
2013-02-28 16:40:00,35.7,26.9,0.00,NW,315,0.0,1.3,70,0.00,,,0.00,WUHU216HW,2013-02-28 21:40:00,
2013-02-28 16:45:00,35.7,26.9,0.00,SE,135,0.0,4.2,70,0.00,,,0.00,WUHU216HW,2013-02-28 21:45:00,
2013-02-28 16:50:00,35.4,26.6,0.00,NE,45,2.0,4.2,70,0.00,,,0.00,WUHU216HW,2013-02-28 21:50:00,
2013-02-28 16:55:00,35.4,26.6,0.00,ENE,68,0.0,4.0,70,0.00,,,0.00,WUHU216HW,2013-02-28 21:55:00,
2013-02-28 17:00:00,35.4,26.6,0.00,East,90,0.0,0.0,70,0.00,,,0.00,WUHU216HW,2013-02-28 22:00:00,
2013-02-28 17:05:00,35.2,26.4,0.00,East,90,0.0,0.0,70,0.00,,,0.00,WUHU216HW,2013-02-28 22:05:00,
2013-02-28 17:10:00,35.2,26.4,0.00,SE,135,2.4,2.9,70,0.00,,,0.00,WUHU216HW,2013-02-28 22:10:00,
2013-02-28 17:15:00,35.2,26.4,0.00,ESE,113,0.0,3.1,70,0.00,,,0.00,WUHU216HW,2013-02-28 22:15:00,
2013-02-28 17:20:00,34.8,26.0,0.00,East,90,0.0,3.1,70,0.00,,,0.00,WUHU216HW,2013-02-28 22:20:00,
2013-02-28 17:25:00,34.8,25.8,0.00,ESE,113,0.0,0.8,70,0.00,,,0.00,WUHU216HW,2013-02-28 22:25:00,
2013-02-28 17:30:00,34.5,25.7,0.00,NW,315,0.0,6.7,70,0.00,,,0.00,WUHU216HW,2013-02-28 22:30:00,
2013-02-28 17:35:00,34.5,25.7,0.00,West,270,2.6,6.7,70,0.00,,,0.00,WUHU216HW,2013-02-28 22:35:00,
2013-02-28 17:40:00,34.3,25.5,0.00,ESE,113,0.0,2.6,70,0.00,,,0.00,WUHU216HW,2013-02-28 22:40:00,
2013-02-28 17:45:00,34.3,25.5,0.00,SE,135,0.0,2.4,70,0.00,,,0.00,WUHU216HW,2013-02-28 22:45:00,
2013-02-28 17:50:00,34.3,25.5,0.00,East,90,0.0,6.0,70,0.00,,,0.00,WUHU216HW,2013-02-28 22:50:00,
2013-02-28 17:55:00,34.3,25.5,0.00,ESE,113,0.0,6.0,70,0.00,,,0.00,WUHU216HW,2013-02-28 22:55:00,
2013-02-28 18:00:00,34.3,25.5,0.00,SE,135,0.0,1.1,70,0.00,,,0.00,WUHU216HW,2013-02-28 23:00:00,
2013-02-28 18:05:00,34.1,25.5,0.00,SE,135,0.0,1.1,70,0.00,,,0.00,WUHU216HW,2013-02-28 23:05:00,
2013-02-28 18:10:00,34.1,25.3,0.00,ESE,113,0.0,3.8,69,0.00,,,0.00,WUHU216HW,2013-02-28 23:10:00,
2013-02-28 18:15:00,34.1,24.9,0.00,ESE,113,0.0,3.8,69,0.00,,,0.00,WUHU216HW,2013-02-28 23:15:00,
2013-02-28 18:20:00,33.9,24.8,0.00,ESE,113,0.0,1.7,69,0.00,,,0.00,WUHU216HW,2013-02-28 23:20:00,
2013-02-28 18:25:00,33.9,25.1,0.00,ESE,113,0.0,0.0,70,0.00,,,0.00,WUHU216HW,2013-02-28 23:25:00,
2013-02-28 18:30:00,33.9,25.1,0.00,ESE,113,0.0,0.0,70,0.00,,,0.00,WUHU216HW,2013-02-28 23:30:00,
2013-02-28 18:35:00,33.9,25.1,0.00,ESE,113,0.0,0.0,70,0.00,,,0.00,WUHU216HW,2013-02-28 23:35:00,
2013-02-28 18:40:00,33.8,24.9,0.00,WNW,293,0.0,4.6,70,0.00,,,0.00,WUHU216HW,2013-02-28 23:40:00,
2013-02-28 18:45:00,33.8,24.9,0.00,South,180,0.0,4.6,70,0.00,,,0.00,WUHU216HW,2013-02-28 23:45:00,
2013-02-28 18:50:00,33.8,24.9,0.00,South,180,0.0,0.0,70,0.00,,,0.00,WUHU216HW,2013-02-28 23:50:00,
2013-02-28 18:55:00,33.8,24.9,0.00,South,180,0.0,0.0,70,0.00,,,0.00,WUHU216HW,2013-02-28 23:55:00,
2013-02-28 19:00:00,33.8,25.3,0.00,South,180,0.0,0.0,71,0.00,,,0.00,WUHU216HW,2013-03-01 00:00:00,
2013-02-28 19:05:00,33.8,25.3,0.00,South,180,0.0,0.0,71,0.00,,,0.00,WUHU216HW,2013-03-01 00:05:00,
2013-02-28 19:10:00,33.8,25.3,0.00,South,180,0.0,0.0,71,0.00,,,0.00,WUHU216HW,2013-03-01 00:10:00,
2013-02-28 19:15:00,33.6,25.1,0.00,North,0,0.0,0.8,71,0.00,,,0.00,WUHU216HW,2013-03-01 00:15:00,
2013-02-28 19:20:00,33.6,25.1,0.00,SSE,158,0.0,0.8,71,0.00,,,0.00,WUHU216HW,2013-03-01 00:20:00,
2013-02-28 19:25:00,33.6,25.1,0.00,SSE,158,0.0,0.0,71,0.00,,,0.00,WUHU216HW,2013-03-01 00:25:00,
2013-02-28 19:30:00,33.6,25.1,0.00,SSE,158,0.0,0.0,71,0.00,,,0.00,WUHU216HW,2013-03-01 00:30:00,
2013-02-28 19:35:00,33.6,25.1,0.00,SSE,158,0.0,0.0,71,0.00,,,0.00,WUHU216HW,2013-03-01 00:35:00,
2013-02-28 19:40:00,33.6,25.1,0.00,West,270,0.6,0.6,71,0.00,,,0.00,WUHU216HW,2013-03-01 00:40:00,
2013-02-28 19:45:00,33.6,25.1,0.00,West,270,0.0,0.6,71,0.00,,,0.00,WUHU216HW,2013-03-01 00:45:00,
2013-02-28 19:50:00,33.6,25.1,0.00,West,270,0.0,0.0,71,0.00,,,0.00,WUHU216HW,2013-03-01 00:50:00,
2013-02-28 19:55:00,33.6,25.1,0.00,West,270,0.0,0.0,71,0.00,,,0.00,WUHU216HW,2013-03-01 00:55:00,
2013-02-28 20:00:00,33.6,25.1,0.00,West,270,0.0,0.0,71,0.00,,,0.00,WUHU216HW,2013-03-01 01:00:00,
2013-02-28 20:05:00,33.6,25.1,0.00,West,270,0.0,0.0,71,0.00,,,0.00,WUHU216HW,2013-03-01 01:05:00,
2013-02-28 20:10:00,33.6,25.1,0.00,West,270,0.0,0.0,71,0.00,,,0.00,WUHU216HW,2013-03-01 01:10:00,
2013-02-28 20:15:00,33.6,25.4,0.00,SSE,158,0.0,0.0,72,0.00,,,0.00,WUHU216HW,2013-03-01 01:15:00,
2013-02-28 20:20:00,33.4,25.3,0.00,SSE,158,0.0,0.0,72,0.00,,,0.00,WUHU216HW,2013-03-01 01:20:00,
2013-02-28 20:25:00,33.4,25.3,0.00,SSE,158,0.0,0.0,72,0.00,,,0.00,WUHU216HW,2013-03-01 01:25:00,
2013-02-28 20:30:00,33.2,25.1,0.00,North,0,0.0,3.3,72,0.00,,,0.00,WUHU216HW,2013-03-01 01:30:00,
2013-02-28 20:35:00,33.2,25.1,0.00,East,90,0.0,3.3,72,0.00,,,0.00,WUHU216HW,2013-03-01 01:35:00,
2013-02-28 20:40:00,33.0,24.9,0.00,ENE,68,0.0,0.0,72,0.00,,,0.00,WUHU216HW,2013-03-01 01:40:00,
2013-02-28 20:45:00,33.0,24.9,0.00,SE,135,0.0,0.0,72,0.00,,,0.00,WUHU216HW,2013-03-01 01:45:00,
2013-02-28 20:50:00,32.9,24.8,0.00,ESE,113,0.0,0.0,72,0.00,,,0.00,WUHU216HW,2013-03-01 01:50:00,
2013-02-28 20:55:00,32.9,24.8,0.00,ESE,113,0.0,0.0,72,0.00,,,0.00,WUHU216HW,2013-03-01 01:55:00,
2013-02-28 21:00:00,32.9,24.8,0.00,South,180,0.0,0.0,72,0.00,,,0.00,WUHU216HW,2013-03-01 02:00:00,
2013-02-28 21:05:00,32.9,24.8,0.00,South,180,0.0,0.0,72,0.00,,,0.00,WUHU216HW,2013-03-01 02:05:00,
2013-02-28 21:10:00,32.7,24.6,0.00,South,180,0.0,0.0,72,0.00,,,0.00,WUHU216HW,2013-03-01 02:10:00,
2013-02-28 21:15:00,32.7,24.6,0.00,SSE,158,0.0,1.5,72,0.00,,,0.00,WUHU216HW,2013-03-01 02:15:00,
2013-02-28 21:20:00,32.7,24.6,0.00,West,270,0.0,1.5,72,0.00,,,0.00,WUHU216HW,2013-03-01 02:20:00,
2013-02-28 21:25:00,32.7,24.6,0.00,NE,45,0.0,0.8,72,0.00,,,0.00,WUHU216HW,2013-03-01 02:25:00,
2013-02-28 21:30:00,32.7,24.6,0.00,East,90,0.0,0.8,72,0.00,,,0.00,WUHU216HW,2013-03-01 02:30:00,
2013-02-28 21:35:00,32.7,24.6,0.00,East,90,0.0,0.0,72,0.00,,,0.00,WUHU216HW,2013-03-01 02:35:00,
2013-02-28 21:40:00,32.7,24.6,0.00,East,90,0.0,0.0,72,0.00,,,0.00,WUHU216HW,2013-03-01 02:40:00,
2013-02-28 21:45:00,32.7,24.6,0.00,East,90,0.0,1.1,72,0.00,,,0.00,WUHU216HW,2013-03-01 02:45:00,
2013-02-28 21:50:00,32.7,24.9,0.00,East,90,0.0,1.1,73,0.00,,,0.00,WUHU216HW,2013-03-01 02:50:00,
2013-02-28 21:55:00,32.7,24.9,0.00,SE,135,2.2,2.4,73,0.00,,,0.00,WUHU216HW,2013-03-01 02:55:00,
2013-02-28 22:00:00,32.7,24.9,0.00,SE,135,0.0,2.4,73,0.00,,,0.00,WUHU216HW,2013-03-01 03:00:00,
2013-02-28 22:05:00,32.5,24.8,0.00,SE,135,0.0,0.0,73,0.00,,,0.00,WUHU216HW,2013-03-01 03:05:00,
2013-02-28 22:10:00,32.5,24.8,0.00,ESE,113,0.0,5.3,73,0.00,,,0.00,WUHU216HW,2013-03-01 03:10:00,
2013-02-28 22:15:00,32.5,24.8,0.00,SE,135,0.0,5.3,73,0.00,,,0.00,WUHU216HW,2013-03-01 03:15:00,
2013-02-28 22:20:00,32.5,24.8,0.00,South,180,4.0,4.0,73,0.00,,,0.00,WUHU216HW,2013-03-01 03:20:00,
2013-02-28 22:25:00,32.5,24.8,0.00,SE,135,0.0,4.0,73,0.00,,,0.00,WUHU216HW,2013-03-01 03:25:00,
2013-02-28 22:30:00,32.3,25.1,0.00,SE,135,2.4,4.0,74,0.00,,,0.00,WUHU216HW,2013-03-01 03:30:00,
2013-02-28 22:35:00,32.3,24.9,0.00,ESE,113,0.0,2.4,74,0.00,,,0.00,WUHU216HW,2013-03-01 03:35:00,
2013-02-28 22:40:00,32.3,24.9,0.00,WSW,248,0.0,3.1,74,0.00,,,0.00,WUHU216HW,2013-03-01 03:40:00,
2013-02-28 22:45:00,32.3,24.9,0.00,South,180,0.0,3.1,74,0.00,,,0.00,WUHU216HW,2013-03-01 03:45:00,
2013-02-28 22:50:00,32.3,24.9,0.00,SSE,158,0.0,2.4,74,0.00,,,0.00,WUHU216HW,2013-03-01 03:50:00,
2013-02-28 22:55:00,32.3,24.9,0.00,SSE,158,0.0,2.4,74,0.00,,,0.00,WUHU216HW,2013-03-01 03:55:00,
2013-02-28 23:00:00,32.3,24.9,0.00,ESE,113,0.0,0.0,74,0.00,,,0.00,WUHU216HW,2013-03-01 04:00:00,
2013-02-28 23:05:00,32.3,24.9,0.00,SE,135,1.1,1.1,74,0.00,,,0.00,WUHU216HW,2013-03-01 04:05:00,
2013-02-28 23:10:00,32.3,24.9,0.00,SE,135,0.0,1.3,74,0.00,,,0.00,WUHU216HW,2013-03-01 04:10:00,
2013-02-28 23:15:00,32.3,24.9,0.00,SE,135,0.0,1.3,74,0.00,,,0.00,WUHU216HW,2013-03-01 04:15:00,
2013-02-28 23:20:00,32.3,24.9,0.00,SSE,158,2.4,2.4,74,0.00,,,0.00,WUHU216HW,2013-03-01 04:20:00,
2013-02-28 23:25:00,32.3,24.9,0.00,SW,225,0.0,2.4,74,0.00,,,0.00,WUHU216HW,2013-03-01 04:25:00,
2013-02-28 23:30:00,32.3,25.3,0.00,SE,135,0.0,0.0,75,0.00,,,0.00,WUHU216HW,2013-03-01 04:30:00,
2013-02-28 23:35:00,32.3,25.3,0.00,SW,225,0.0,0.0,75,0.00,,,0.00,WUHU216HW,2013-03-01 04:35:00,
2013-02-28 23:40:00,32.3,25.3,0.00,SSW,203,0.0,0.0,75,0.00,,,0.00,WUHU216HW,2013-03-01 04:40:00,
2013-02-28 23:45:00,32.1,25.1,0.00,SE,135,0.0,8.9,75,0.00,,,0.00,WUHU216HW,2013-03-01 04:45:00,
2013-02-28 23:50:00,32.3,25.3,0.00,West,270,0.0,8.9,75,0.00,,,0.00,WUHU216HW,2013-03-01 04:50:00,
2013-02-28 23:55:00,32.1,25.1,0.00,SE,135,0.0,2.2,75,0.00,,,0.00,WUHU216HW,2013-03-01 04:55:00,